Погода в Туринске

Погода в Туринске : погода сейчас, прогноз погоды и архив. Всё, что Вы хотите узнать о погоде в Туринске!

Хотите узнать прогноз погоды в Туринске? Тогда Вам сюда: Погода в Туринске

Поиск расширенной информации на нашем сайте:

Другие новости

Новости СМИ2

Главная страница сайта

Новости сайта

03.07.2017

Напоминаем, что на нашем специализированном сайте Метеоцентр.Азия вы можете получить высокодетализированные автоматические прогнозы погоды по пунктам России, СНГ и мира в авиационном формате (включающие направление и скорость ветра, видимость, явления погоды, количество и форму облачности, нижнюю и верхнюю границу облачности).

Рекомендуем: офисные блоки на выгодных условиях аренда офиса в бизнес парке Московский шелк У метро Спортивная

Погода в Туринске - сегодня

Время (UTC), дата Ветер
(°,м/с) 
Видим.   Явления Облачность Т
(°С)
Тd
(°С)
f(%) Тe
(°С)
Pmin
(гПа)
dP
(гПа)
Po
(мм)
O2
(г/м3)
Тmin Tmax R s Состояние
почвы
06 08.07.18 тихо ()   20000 м    10/0 верхняя 
[Ci fib]
+26.4 +17.9 60 +41  1006.9  -0.9  746  270           
00 09.07.18 тихо ()   4000 м  дымка{гроза, ливн. осадки}  ясно 
+17.8 +17.1 96 +31  999.9  -0.7  741  276           
06 09.07.18 280 (З) 20000 м  {морось}  10/10 600 м кучево-дожд. 
[Cb calv]
+20.8 +18.6 87 +37  1002.1  1.8  743  274           
12 09.07.18 240 (ЮЗ) 20000 м    4/4 1000 м 
[Cu hum]
+25.6 +16.3 56 +37  1003.2  0.2  744  270           
18 09.07.18 270 (З) 1000 м    ясно 
+17.6 +16.5 93 +31  1004.7  0.6  745  278           
06 10.07.18 220 (ЮЗ) 20000 м    ясно 
+26.9 +16.2 52 +38  1006  0.3  746  270           
12 10.07.18 330 (СЗ) 20000 м    10/10 600 м кучево-дожд. 
[Cb calv]
+23.7 +17.5 68 +37  1006.3  0.2  746  273           
06 11.07.18 260 (З) 20000 м    10/0 средняя, верхняя 
[Ac trans|Ci fib]
+24.3 +14.3 54 +32  1006.7  0.2  746  273           
12 11.07.18 090 (В) 20000 м    6/3 600 м кучево-дожд., верхняя 
[Cb calv|Ci fib]
+25.2 +15.2 54 +34  1006.2  -0.6  746  272           
18 11.07.18 050 (СВ) 1000 м    10/4 600 м кучево-дожд., верхняя 
[Cb calv|Ci fib]
+18.5 +17 91 +32  1006.7  0.3  746  278           
00 12.07.18 тихо ()   20000 м    10/10 600 м кучево-дожд. 
[Cb calv]
+15.8 +14.9 94 +24  1006.3  0.3  746  281           
06 12.07.18 040 (СВ) 20000 м  {гроза, ливн. осадки}  8/8 600 м кучево-дожд. 
[Cb calv]
+20.3 +18.7 91 +36  1007.4  -0.2  747  276           
06 13.07.18 040 (СВ) 20000 м    10/0 средняя, верхняя 
[Ac trans|Ci fib]
+22.7 +17.9 74 +37  1008.3  0.4  747  274           
00 14.07.18 080 (В) 20000 м    ясно 
+17.1 +14 82 +26  1010.7  0.6  749  281           
06 14.07.18 060 (СВ) 20000 м    ясно 
+24.2 +15.1 57 +33  1012  0.8  750  275           
12 14.07.18 060 (СВ) 20000 м    3/3 600 м 
[Cu hum]
+25.9 +12.7 44 +31  1011.3  -0.8  750  273           
18 14.07.18 060 (СВ) 1000 м    ясно 
+18.3 +11.5 65 +22  1013.1  751  281           
00 15.07.18 080 (В) 20000 м    ясно 
+14.1 +10.9 81 +17  1014.4  0.8  752  286           
06 15.07.18 070 (В) 20000 м    ясно 
+24.8 +14.2 52 +32  1015.2  0.3  753  275           
12 15.07.18 080 (В) 20000 м    ясно 
+27.1 +10.1 34 +28  1014.5  -0.5  752  274           
18 15.07.18 тихо ()   1000 м    ясно 
+15.5 +11.8 79 +19  1015.8  0.8  753  285           
06 16.07.18 тихо ()   20000 м    3/0 верхняя 
[Ci fib]
+26.3 +9.5 35 +27  1016.9  754  275           
12 16.07.18 тихо ()   20000 м    ясно 
+28.2 +11.8 36 +32  1015.4  -0.7  753  273           
18 16.07.18 260 (З) 1000 м    3/0 верхняя 
[Ci fib]
+16.9 +14.1 84 +25  1015.8  0.6  753  283           
00 17.07.18 тихо ()   4000 м  дымка  ясно 
+13.3 +12.6 96 +18  1016.1  -0.4  753  287           
Время (UTC), дата Ветер
(°,м/с) 
Видим.   Явления Облачность Т
(°С)
Тd
(°С)
f(%) Тe
(°С)
Pmin
(гПа)
dP
(гПа)
Po
(мм)
O2
(г/м3)
Тmin Tmax R s Состояние
почвы

Для получения пояснительной информации подведите курсор к названию столбца.

ПОГОДА в Туринске - архив

Всё, что Вы хотите узнать о погоде в Туринске - удобно и подробно!

Выберите нужную дату (начиная с 1 января 2015* года) и нажмите кнопку "Найти".
Будут отображены архивные сводки погоды по пункту Туринск, начиная с указанной даты.


Отображать данные в формате CSV (для использования в таблицах Excel)


Внимание! Наш архив погоды предназначен исключительно для личного некоммерческого использования в познавательных целях. Если Вам необходимы официальные справки о состоянии погоды (для производственных, юридических, коммерческих и т.п. целей), обращайтесь в органы Росгидромета.

*Примечание: данная дата относится к архиву по метеостанциям СССР (Россия, СНГ, Балтия).
Архив по метеостанциям Зарубежной Европы и Азии (кроме Китая) хранится 10 дней, по другим регионам земного шара (Китай, Африка, Америка, Австралия, Океания) - 1 день.

Туринск - район местоположения метеостанции


Название, широта, долгота, высота метеостанции:
Туринск 58.1°ш. 63.7°д. 103 м над ур. моря [Российская Федерация]

Дополнительная информация

В oтличие oт бoльшинства пoгoдных сайтoв мы публикуем пoдрoбную метеoинфoрмацию в детальнoм прoфессиoнальнoм фoрмате.

Характеристики температуры и влажнoсти вoздуха измеряются на высoте 2 м в тени вдали oт зданий и деревьев.
Скoрoсть ветра измеряется на высoте 10 м (на урoвне рoста челoвека скoрoсть ветра ниже в 1.5-2 раза). Если метеoстанция нахoдится в гoрoде или в лесу, тo скoрoсть ветра занижена на 2-4 м/с пo сравнению с oткрытым местoм. Скoрoсть ветра над акватoриями крупных рек и oзёр, а также на вершинах хoлмoв на 2-5 м/с выше, чем в oбычных услoвиях.
Атмoсфернoе давление в разных тoчках местнoсти мoжет значительнo oтличаться oт давления на метеoстанции, в зависимoсти oт услoвий рельефа (при пoдъёме на 10 м давление пoнижается примернo на 1 мм рт.ст.).